DW0108 Weather Reports


time (UTC)temp
C
wind
direction
speed
KPH
gust
KPH
rain 1hr
cm
rain 24hr
cm
rain mn
cm
humidity
%
barometer
mb
20260906224836 37 116 1.6 6.4 0.00 0.00 0.00 41 1011.1
20260906223819 37 160 0.0 3.2 0.00 0.00 0.00 41 1011.1
20260906222804 37 153 0.0 3.2 0.00 0.00 0.00 40 1011.1
20260906221815 37 81 1.6 4.8 0.00 0.00 0.00 40 1011.1
20260906220807 37 156 3.2 4.8 0.00 0.00 0.00 41 1011.5
20260906215825 36 94 0.0 4.8 0.00 0.00 0.00 42 1011.5
20260906214838 37 158 1.6 3.2 0.00 0.00 0.00 41 1011.5
20260906213844 37 59 1.6 6.4 0.00 0.00 0.00 40 1011.8
20260906211834 37 192 1.6 9.7 0.00 0.00 0.00 40 1011.8
20260906210830 36 152 0.0 4.8 0.00 0.00 0.00 42 1012.1
20260906205837 37 111 1.6 8.0 0.00 0.00 0.00 40 1012.5
20260906204829 37 120 1.6 6.4 0.00 0.00 0.00 41 1012.1
20260906202833 36 124 3.2 8.0 0.00 0.00 0.00 43 1012.5
20260906200825 37 83 1.6 4.8 0.00 0.00 0.00 42 1012.5
20260906195825 36 109 3.2 8.0 0.00 0.00 0.00 43 1012.8
20260906194842 36 125 1.6 6.4 0.00 0.00 0.00 45 1012.8
20260906193836 37 183 3.2 6.4 0.00 0.00 0.00 44 1012.8
20260906192839 36 53 1.6 3.2 0.00 0.00 0.00 45 1012.8
20260906191808 36 179 3.2 9.7 0.00 0.00 0.00 45 1013.2
20260906190845 36 115 1.6 6.4 0.00 0.00 0.00 44 1013.2
20260906185835 36 187 1.6 3.2 0.00 0.00 0.00 44 1013.5
20260906184815 36 174 1.6 4.8 0.00 0.00 0.00 44 1013.5
20260906183810 36 150 1.6 4.8 0.00 0.00 0.00 46 1013.2
20260906182847 36 101 1.6 4.8 0.00 0.00 0.00 44 1013.5
20260906181809 36 194 1.6 8.0 0.00 0.00 0.00 46 1013.8
20260906180840 35 79 3.2 6.4 0.00 0.00 0.00 47 1014.2
20260906175835 35 101 1.6 8.0 0.00 0.00 0.00 47 1014.2
20260906174819 35 129 1.6 4.8 0.00 0.00 0.00 46 1014.2
20260906173845 35 96 1.6 4.8 0.00 0.00 0.00 49 1014.2
20260906172828 35 128 1.6 4.8 0.00 0.00 0.00 50 1014.2
20260906171830 34 97 1.6 4.8 0.00 0.00 0.00 51 1014.8
20260906170833 35 142 3.2 8.0 0.00 0.00 0.00 52 1015.2
20260906165821 34 138 1.6 6.4 0.00 0.00 0.00 53 1014.8
20260906164848 34 77 1.6 4.8 0.00 0.00 0.00 53 1015.2
20260906163842 33 95 1.6 8.0 0.00 0.00 0.00 54 1014.8
20260906162823 34 130 1.6 4.8 0.00 0.00 0.00 53 1015.2
20260906161820 33 126 0.0 3.2 0.00 0.00 0.00 56 1014.8
20260906160811 33 85 0.0 4.8 0.00 0.00 0.00 58 1015.2
20260906155809 33 139 0.0 3.2 0.00 0.00 0.00 59 1015.2
20260906154833 33 137 0.0 3.2 0.00 0.00 0.00 60 1015.2
20260906152816 31 157 1.6 6.4 0.00 0.00 0.00 66 1015.2
20260906151824 31 155 1.6 4.8 0.00 0.00 0.00 68 1014.8
20260906150836 30 164 1.6 3.2 0.00 0.00 0.00 69 1014.8
20260906145818 30 127 1.6 4.8 0.00 0.00 0.00 69 1014.8
20260906144847 30 137 1.6 3.2 0.00 0.00 0.00 71 1014.5
20260906143837 31 100 0.0 1.6 0.00 0.00 0.00 69 1014.5
20260906142806 29 183 0.0 3.2 0.00 0.00 0.00 74 1014.8
20260906141826 28 128 0.0 3.2 0.00 0.00 0.00 75 1014.8
20260906140835 28 145 0.0 1.6 0.00 0.00 0.00 77 1014.8
20260906135823 28 104 0.0 3.2 0.00 0.00 0.00 78 1014.8
20260906134846 27 121 1.6 3.2 0.00 0.00 0.00 79 1014.5
20260906133818 27 116 0.0 1.6 0.00 0.00 0.00 80 1014.5
20260906132807 27 84 0.0 1.6 0.00 0.00 0.00 81 1014.5
20260906131831 26 65 0.0 1.6 0.00 0.00 0.00 83 1014.5
20260906130810 26 57 0.0 1.6 0.00 0.00 0.00 84 1014.8
20260906125827 26 75 0.0 0.0 0.00 0.00 0.00 87 1014.5
20260906124841 25 73 0.0 1.6 0.00 0.00 0.00 88 1014.5
20260906122848 25 59 0.0 1.6 0.00 0.00 0.00 89 1014.5
20260906121834 25 76 0.0 0.0 0.00 0.00 0.00 89 1014.2
20260906120816 25 62 0.0 0.0 0.00 0.00 0.00 88 1014.2
20260906115844 25 176 0.0 0.0 0.00 0.00 0.00 89 1013.8
20260906114806 25 83 0.0 1.6 0.00 0.00 0.00 88 1013.8
20260906113808 25 104 0.0 0.0 0.00 0.00 0.00 87 1013.8
20260906112821 25 144 0.0 1.6 0.00 0.00 0.00 87 1013.5
20260906111844 25 184 0.0 0.0 0.00 0.00 0.00 87 1013.5
20260906110810 25 85 0.0 1.6 0.00 0.00 0.00 86 1013.5
20260906105835 25 87 0.0 0.0 0.00 0.00 0.00 85 1013.5
20260906104831 25 99 0.0 1.6 0.00 0.00 0.00 85 1013.5
20260906102836 26 146 0.0 1.6 0.00 0.00 0.00 84 1013.5
20260906101834 26 130 0.0 1.6 0.00 0.00 0.00 84 1013.2
20260906100834 26 47 0.0 1.6 0.00 0.00 0.00 81 1013.5
20260906095819 26 76 0.0 1.6 0.00 0.00 0.00 81 1013.2
20260906093842 26 90 0.0 1.6 0.00 0.00 0.00 80 1012.8
20260906091840 27 144 0.0 3.2 0.00 0.00 0.00 78 1012.8
20260906085838 27 133 0.0 1.6 0.00 0.00 0.00 78 1012.5
20260906083811 27 80 0.0 1.6 0.00 0.00 0.00 79 1012.5
20260906082826 27 98 0.0 1.6 0.00 0.00 0.00 78 1012.8
20260906081818 27 167 0.0 1.6 0.00 0.00 0.00 77 1012.8
20260906080839 27 194 0.0 0.0 0.00 0.00 0.00 77 1013.2
20260906075828 27 184 0.0 0.0 0.00 0.00 0.00 76 1013.2
20260906074823 28 245 0.0 1.6 0.00 0.00 0.00 76 1013.2
20260906073817 28 201 0.0 1.6 0.00 0.00 0.00 76 1013.2
20260906072840 28 116 0.0 1.6 0.00 0.00 0.00 75 1012.8
20260906071814 28 128 0.0 3.2 0.00 0.00 0.00 75 1012.8
20260906070807 28 166 1.6 3.2 0.00 0.00 0.00 74 1012.8
20260906065836 28 148 0.0 1.6 0.00 0.00 0.00 74 1012.8
20260906064832 28 135 0.0 1.6 0.00 0.00 0.00 74 1012.8
20260906061843 28 138 0.0 1.6 0.00 0.00 0.00 72 1013.2
20260906055830 28 240 0.0 0.0 0.00 0.00 0.00 72 1013.5
20260906054847 28 113 0.0 1.6 0.00 0.00 0.00 72 1013.2
20260906053830 29 151 0.0 3.2 0.00 0.00 0.00 71 1013.2
20260906051823 30 91 0.0 1.6 0.00 0.00 0.00 70 1013.5
20260906050840 30 136 0.0 1.6 0.00 0.00 0.00 69 1013.5
20260906045831 30 165 0.0 3.2 0.00 0.00 0.00 68 1013.5
20260906044842 30 167 0.0 3.2 0.00 0.00 0.00 68 1013.2
20260906043831 30 155 1.6 6.4 0.00 0.00 0.00 67 1013.5
20260906042813 30 160 1.6 4.8 0.00 0.00 0.00 67 1012.8
20260906041806 30 158 0.0 4.8 0.00 0.00 0.00 66 1012.8
20260906040820 30 153 1.6 6.4 0.00 0.00 0.00 66 1013.2
20260906035818 31 153 1.6 4.8 0.00 0.00 0.00 66 1013.2
20260906034841 31 161 0.0 4.8 0.00 0.00 0.00 65 1012.8
20260906033827 31 138 0.0 1.6 0.00 0.00 0.00 65 1013.2
20260906032809 31 158 1.6 3.2 0.00 0.00 0.00 65 1013.2
20260906031847 31 151 1.6 4.8 0.00 0.00 0.00 64 1013.5
20260906030832 31 150 1.6 4.8 0.00 0.00 0.00 62 1013.2
20260906024804 32 142 0.0 3.2 0.00 0.00 0.00 60 1012.8
20260906023840 32 145 0.0 3.2 0.00 0.00 0.00 59 1012.8
20260906022833 32 145 1.6 3.2 0.00 0.00 0.00 58 1012.5
20260906020814 32 147 0.0 3.2 0.00 0.00 0.00 55 1012.5
20260906015846 32 144 3.2 12.9 0.00 0.00 0.00 54 1012.1
20260906014819 33 148 1.6 4.8 0.00 0.00 0.00 53 1011.8
20260906013820 33 154 1.6 6.4 0.00 0.00 0.00 50 1011.8
20260906010834 35 141 1.6 4.8 0.00 0.00 0.00 46 1011.1
20260906005822 35 168 0.0 3.2 0.00 0.00 0.00 44 1011.5
20260906004821 35 143 0.0 3.2 0.00 0.00 0.00 43 1011.1
20260906003848 35 134 0.0 1.6 0.00 0.00 0.00 43 1011.1
20260906002818 35 145 0.0 1.6 0.00 0.00 0.00 42 1011.1
20260906001843 36 127 0.0 1.6 0.00 0.00 0.00 42 1011.1
20260906000840 36 152 0.0 3.2 0.00 0.00 0.00 41 1011.1
20260905235817 36 163 0.0 3.2 0.00 0.00 0.03 41 1010.8
20260905234818 36 77 0.0 3.2 0.00 0.00 0.03 41 1011.1
20260905233812 36 130 0.0 1.6 0.00 0.00 0.03 42 1010.8
20260905232842 36 141 1.6 3.2 0.00 0.00 0.03 41 1010.8
20260905231847 37 181 0.0 3.2 0.00 0.00 0.03 41 1011.1
20260905230830 36 152 0.0 1.6 0.00 0.00 0.03 40 1010.8
20260905225837 37 129 1.6 6.4 0.00 0.00 0.03 40 1010.8